H1 CPF 2 NER 2024 10 26 9 300 01 glonass144 H2 2207501 9144 52984 2024 10 26 0 0 0 2024 10 29 23 45 0 900 1 1 0 0 0 1 H9 10 0 60609 0.00000 0 5705583.987 11105792.091 22275339.559 10 0 60609 900.00000 0 4459074.612 13474971.588 21226879.889 10 0 60609 1800.00000 0 3453105.438 15788956.850 19767479.101 10 0 60609 2700.00000 0 2691188.877 17980934.714 17925311.950 10 0 60609 3600.00000 0 2164518.004 19986240.325 15735955.964 10 0 60609 4500.00000 0 1852549.111 21744911.256 13241717.318 10 0 60609 5400.00000 0 1724084.028 23204065.677 10490826.861 10 0 60609 6300.00000 0 1738807.129 24320006.017 7536520.339 10 0 60609 7200.00000 0 1849212.916 25059960.384 4436019.261 10 0 60609 8100.00000 0 2002843.490 25403388.506 1249431.077 10 0 60609 9000.00000 0 2144741.862 25342796.683 -1961410.830 10 0 60609 9900.00000 0 2220017.559 24884026.404 -5134145.140 10 0 60609 10800.00000 0 2176415.688 24046003.233 -8207095.339 10 0 60609 11700.00000 0 1966780.005 22859955.166 -11120473.286 10 0 60609 12600.00000 0 1551304.552 21368132.079 -13817549.547 10 0 60609 13500.00000 0 899476.955 19622079.139 -16245766.905 10 0 60609 14400.00000 0 -8370.700 17680536.003 -18357774.481 10 0 60609 15300.00000 0 -1179971.104 15607049.719 -20112361.325 10 0 60609 16200.00000 0 -2610539.278 13467401.482 -21475270.452 10 0 60609 17100.00000 0 -4282725.189 11326955.411 -22419876.658 10 0 60609 18000.00000 0 -6167105.346 9248040.871 -22927714.218 10 0 60609 18900.00000 0 -8223194.380 7287478.489 -22988843.668 10 0 60609 19800.00000 0 -10400935.457 5494353.794 -22602050.107 10 0 60609 20700.00000 0 -12642607.850 3908131.976 -21774868.873 10 0 60609 21600.00000 0 -14885072.208 2557192.613 -20523437.955 10 0 60609 22500.00000 0 -17062259.529 1457845.287 -18872180.003 10 0 60609 23400.00000 0 -19107799.352 613866.573 -16853320.269 10 0 60609 24300.00000 0 -20957676.677 16576.530 -14506250.225 10 0 60609 25200.00000 0 -22552805.763 -354550.138 -11876749.741 10 0 60609 26100.00000 0 -23841412.485 -530765.912 -9016083.698 10 0 60609 27000.00000 0 -24781125.103 -552474.550 -5979991.565 10 0 60609 27900.00000 0 -25340685.751 -467266.112 -2827590.576 10 0 60609 28800.00000 0 -25501211.226 -327648.061 379784.967 10 0 60609 29700.00000 0 -25256950.941 -188570.233 3579784.633 10 0 60609 30600.00000 0 -24615511.358 -104849.911 6710258.772 10 0 60609 31500.00000 0 -23597538.871 -128607.043 9710466.999 10 0 60609 32400.00000 0 -22235875.949 -306818.708 12522254.466 10 0 60609 33300.00000 0 -20574227.353 -679096.360 15091173.142 10 0 60609 34200.00000 0 -18665393.513 -1275779.518 17367526.854 10 0 60609 35100.00000 0 -16569145.779 -2116425.817 19307320.733 10 0 60609 36000.00000 0 -14349832.638 -3208760.442 20873097.979 10 0 60609 36900.00000 0 -12073816.494 -4548128.643 22034649.198 10 0 60609 37800.00000 0 -9806847.033 -6117474.062 22769582.186 10 0 60609 38700.00000 0 -7611479.118 -7887843.949 23063742.669 10 0 60609 39600.00000 0 -5544640.946 -9819400.726 22911479.087 10 0 60609 40500.00000 0 -3655451.590 -11862898.754 22315747.264 10 0 60609 41400.00000 0 -1983376.677 -13961566.208 21288053.335 10 0 60609 42300.00000 0 -556797.052 -16053315.383 19848236.012 10 0 60609 43200.00000 0 607951.570 -18073191.324 18024091.820 10 0 60609 44100.00000 0 1507029.136 -19955958.647 15850849.558 10 0 60609 45000.00000 0 2149013.904 -21638720.398 13370502.867 10 0 60609 45900.00000 0 2554300.761 -23063461.032 10631012.321 10 0 60609 46800.00000 0 2754000.401 -24179408.154 7685390.976 10 0 60609 47700.00000 0 2788385.243 -24945114.524 4590689.713 10 0 60609 48600.00000 0 2704947.114 -25330172.898 1406900.917 10 0 60609 49500.00000 0 2556148.155 -25316491.028 -1804199.076 10 0 60609 50400.00000 0 2396959.733 -24899072.106 -4980246.657 10 0 60609 51300.00000 0 2282293.496 -24086266.409 -8059503.532 10 0 60609 52200.00000 0 2264433.715 -22899481.980 -10982061.330 10 0 60609 53100.00000 0 2390580.527 -21372364.936 -13691014.140 10 0 60609 54000.00000 0 2700609.298 -19549482.482 -16133575.350 10 0 60609 54900.00000 0 3225142.583 -17484562.810 -18262116.160 10 0 60609 55800.00000 0 3984018.042 -15238365.034 -20035104.550 10 0 60609 56700.00000 0 4985219.049 -12876268.055 -21417925.550 10 0 60609 57600.00000 0 6224315.141 -10465679.281 -22383566.055 10 0 60609 58500.00000 0 7684437.748 -8073371.881 -22913150.131 10 0 60609 59400.00000 0 9336793.926 -5762862.245 -22996313.867 10 0 60609 60300.00000 0 11141697.821 -3591937.638 -22631412.065 10 0 60609 61200.00000 0 13050077.481 -1610437.654 -21825552.424 10 0 60609 62100.00000 0 15005394.322 141617.773 -20594456.431 10 0 60609 63000.00000 0 16945894.867 1635475.805 -18962149.616 10 0 60609 63900.00000 0 18807100.058 2854613.695 -16960487.373 10 0 60609 64800.00000 0 20524427.255 3795178.068 -14628525.889 10 0 60609 65700.00000 0 22035834.278 4465883.649 -12011750.930 10 0 60609 66600.00000 0 23284373.835 4887377.527 -9161180.250 10 0 60609 67500.00000 0 24220550.541 5091097.930 -6132357.971 10 0 60609 68400.00000 0 24804381.197 5117677.890 -2984261.549 10 0 60609 69300.00000 0 25007071.756 5014963.478 221856.295 10 0 60609 70200.00000 0 24812240.869 4835732.479 3423667.059 10 0 60609 71100.00000 0 24216639.321 4635211.756 6558983.122 10 0 60609 72000.00000 0 23230336.131 4468499.742 9566967.198 10 0 60609 72900.00000 0 21876364.731 4388003.936 12389310.734 10 0 60609 73800.00000 0 20189845.250 4441002.154 14971358.434 10 0 60609 74700.00000 0 18216620.772 4667430.457 17263157.551 10 0 60609 75600.00000 0 16011465.427 5097990.665 19220412.498 10 0 60609 76500.00000 0 13635939.500 5752656.542 20805327.549 10 0 60609 77400.00000 0 11155980.878 6639640.784 21987322.771 10 0 60609 78300.00000 0 8639332.445 7754865.664 22743610.918 10 0 60609 79200.00000 0 6152911.183 9081959.243 23059625.661 10 0 60609 80100.00000 0 3760226.688 10592777.475 22929294.125 10 0 60609 81000.00000 0 1518954.339 12248430.978 22355149.452 10 0 60609 81900.00000 0 -521238.174 14000774.693 21348281.634 10 0 60609 82800.00000 0 -2320522.708 15794299.685 19928127.583 10 0 60609 83700.00000 0 -3850326.563 17568349.891 18122103.943 10 0 60609 84600.00000 0 -5094274.993 19259573.116 15965088.785 10 0 60609 85500.00000 0 -6048622.056 20804505.644 13498760.908 10 0 60610 0.00000 0 -6722152.390 22142183.795 10770808.333 10 0 60610 900.00000 0 -7135558.537 23216674.901 7834018.222 10 0 60610 1800.00000 0 -7320318.954 23979420.439 4745268.232 10 0 60610 2700.00000 0 -7317124.751 24391295.384 1564432.787 10 0 60610 3600.00000 0 -7173920.047 24424294.856 -1646771.743 10 0 60610 4500.00000 0 -6943638.743 24062776.797 -4825982.340 10 0 60610 5400.00000 0 -6681733.151 23304206.804 -7911401.715 10 0 60610 6300.00000 0 -6443599.210 22159372.010 -10843003.885 10 0 60610 7200.00000 0 -6282007.832 20652053.213 -13563708.866 10 0 60610 8100.00000 0 -6244652.039 18818167.283 -16020502.807 10 0 60610 9000.00000 0 -6371914.982 16704414.318 -18165480.875 10 0 60610 9900.00000 0 -6694954.822 14366485.153 -19956791.595 10 0 60610 10800.00000 0 -7234189.114 11866903.495 -21359463.368 10 0 60610 11700.00000 0 -7998244.521 9272592.562 -22346096.289 10 0 60610 12600.00000 0 -8983417.845 6652267.907 -22897405.045 10 0 60610 13500.00000 0 -10173672.674 4073765.472 -23002601.833 10 0 60610 14400.00000 0 -11541173.035 1601416.689 -22659611.377 10 0 60610 15300.00000 0 -13047332.572 -706419.519 -21875113.588 10 0 60610 16200.00000 0 -14644335.662 -2799564.700 -20664412.884 10 0 60610 17100.00000 0 -16277066.740 -4637876.727 -19051136.695 10 0 60610 18000.00000 0 -17885366.530 -6192676.443 -17066769.153 10 0 60610 18900.00000 0 -19406519.883 -7447686.291 -14750029.374 10 0 60610 19800.00000 0 -20777869.966 -8399442.958 -12146106.922 10 0 60610 20700.00000 0 -21939448.042 -9057168.392 -9305770.066 10 0 60610 21600.00000 0 -22836507.517 -9442106.729 -6284365.042 10 0 60610 22500.00000 0 -23421854.997 -9586357.312 -3140726.842 10 0 60610 23400.00000 0 -23657879.931 -9531255.372 63976.174 10 0 60610 24300.00000 0 -23518197.393 -9325371.038 3267440.282 10 0 60610 25200.00000 0 -22988835.231 -9022213.242 6407442.786 10 0 60610 26100.00000 0 -22068916.279 -8677737.283 9423052.395 10 0 60610 27000.00000 0 -20770807.873 -8347762.575 12255809.697 10 0 60610 27900.00000 0 -19119733.325 -8085410.394 14850854.870 10 0 60610 28800.00000 0 -17152862.602 -7938669.930 17157981.133 10 0 60610 29700.00000 0 -14917920.987 -7948195.013 19132594.443 10 0 60610 30600.00000 0 -12471374.162 -8145423.662 20736562.071 10 0 60610 31500.00000 0 -9876265.382 -8551098.727 21938935.068 10 0 60610 32400.00000 0 -7199794.152 -9174250.911 22716532.243 10 0 60610 33300.00000 0 -4510735.969 -10011686.187 23054375.881 10 0 60610 34200.00000 0 -1876808.732 -11047998.723 22945972.063 10 0 60610 35100.00000 0 637906.786 -12256108.876 22393431.137 10 0 60610 36000.00000 0 2975387.501 -13598304.363 21407426.505 10 0 60610 36900.00000 0 5085831.254 -15027742.075 20006992.516 10 0 60610 37800.00000 0 6929474.864 -16490349.192 18219164.880 10 0 60610 38700.00000 0 8477993.104 -17927045.717 16078469.578 10 0 60610 39600.00000 0 9715421.600 -19276197.136 13626268.920 10 0 60610 40500.00000 0 10638566.010 -20476196.009 10909975.895 10 0 60610 41400.00000 0 11256880.767 -21468065.537 7982150.502 10 0 60610 42300.00000 0 11591822.485 -22197976.561 4899494.179 10 0 60610 43200.00000 0 11675704.924 -22619572.489 1721760.651 10 0 60610 44100.00000 0 11550103.287 -22696003.963 -1489396.563 10 0 60610 45000.00000 0 11263874.697 -22401586.700 -4671617.994 10 0 60610 45900.00000 0 10870878.148 -21723011.235 -7763050.330 10 0 60610 46800.00000 0 10427490.258 -20660051.851 -10703552.911 10 0 60610 47700.00000 0 9990022.154 -19225742.813 -13435874.513 10 0 60610 48600.00000 0 9612147.432 -17446012.507 -15906776.739 10 0 60610 49500.00000 0 9342450.934 -15358788.920 -18068081.225 10 0 60610 50400.00000 0 9222203.254 -13012612.395 -19877619.282 10 0 60610 51300.00000 0 9283456.479 -10464812.563 -21300064.613 10 0 60610 52200.00000 0 9547543.083 -7779324.842 -22307632.066 10 0 60610 53100.00000 0 10024042.835 -5024237.359 -22880628.105 10 0 60610 54000.00000 0 10710262.625 -2269170.570 -23007841.749 10 0 60610 54900.00000 0 11591252.270 417401.010 -22686767.936 10 0 60610 55800.00000 0 12640356.453 2970773.028 -21923658.670 10 0 60610 56700.00000 0 13820280.044 5332471.852 -20733400.794 10 0 60610 57600.00000 0 15084622.090 7452448.804 -19139222.743 10 0 60610 58500.00000 0 16379813.643 9290916.674 -17172236.129 10 0 60610 59400.00000 0 17647377.333 10819752.374 -14870821.363 10 0 60610 60300.00000 0 18826412.746 12023408.088 -12279869.797 10 0 60610 61200.00000 0 19856202.007 12899294.123 -9449897.821 10 0 60610 62100.00000 0 20678824.854 13457619.292 -6436051.058 10 0 60610 63000.00000 0 21241672.147 13720697.662 -3297019.008 10 0 60610 63900.00000 0 21499751.249 13721753.193 -93882.437 10 0 60610 64800.00000 0 21417685.755 13503275.048 3111083.050 10 0 60610 65700.00000 0 20971325.327 13114995.173 6255623.012 10 0 60610 66600.00000 0 20148898.104 12611575.476 9278715.366 10 0 60610 67500.00000 0 18951657.820 12050103.762 12121752.866 10 0 60610 68400.00000 0 17393999.119 11487505.091 14729673.900 10 0 60610 69300.00000 0 15503036.965 10977978.199 17052020.099 10 0 60610 70200.00000 0 13317668.404 10570564.907 19043901.088 10 0 60610 71100.00000 0 10887156.175 10306954.255 20666848.912 10 0 60610 72000.00000 0 8269293.269 10219612.820 21889547.044 10 0 60610 72900.00000 0 5528224.318 10330318.666 22688421.420 10 0 60610 73800.00000 0 2732013.397 10649159.385 23048083.632 10 0 60610 74700.00000 0 -49942.217 11174035.432 22961618.987 10 0 60610 75600.00000 0 -2749546.865 11890689.065 22430714.873 10 0 60610 76500.00000 0 -5302582.738 12773257.695 21465627.467 10 0 60610 77400.00000 0 -7651122.788 13785328.984 20084987.451 10 0 60610 78300.00000 0 -9745682.270 14881454.462 18315448.038 10 0 60610 79200.00000 0 -11547021.362 16009059.599 16191181.167 10 0 60610 80100.00000 0 -13027525.299 17110671.754 13753230.350 10 0 60610 81000.00000 0 -14172105.535 18126374.085 11048731.248 10 0 60610 81900.00000 0 -14978584.844 18996383.668 8130013.475 10 0 60610 82800.00000 0 -15457550.350 19663646.433 5053599.667 10 0 60610 83700.00000 0 -15631680.474 20076340.148 1879119.986 10 0 60610 84600.00000 0 -15534573.628 20190179.953 -1331837.754 10 0 60610 85500.00000 0 -15209127.485 19970428.495 -4516920.450 10 0 60611 0.00000 0 -14705536.770 19393524.758 -7614221.230 10 0 60611 900.00000 0 -14078993.556 18448260.777 -10563487.923 10 0 60611 1800.00000 0 -13387187.957 17136455.464 -13307300.226 10 0 60611 2700.00000 0 -12687714.295 15473093.954 -15792197.421 10 0 60611 3600.00000 0 -12035493.667 13485925.111 -17969729.570 10 0 60611 4500.00000 0 -11480322.554 11214531.875 -19797412.468 10 0 60611 5400.00000 0 -11064652.177 8708911.784 -21239566.517 10 0 60611 6300.00000 0 -10821693.601 6027625.789 -22268022.436 10 0 60611 7200.00000 0 -10773929.783 3235591.924 -22862679.286 10 0 60611 8100.00000 0 -10932098.438 401615.456 -23011903.436 10 0 60611 9000.00000 0 -11294689.515 -2404241.568 -22712760.249 10 0 60611 9900.00000 0 -11847979.122 -5113341.639 -21971073.683 10 0 60611 10800.00000 0 -12566598.797 -7661091.976 -20801312.505 10 0 60611 11700.00000 0 -13414616.130 -9989394.252 -19226305.285 10 0 60611 12600.00000 0 -14347080.850 -12048821.617 -17276789.864 10 0 60611 13500.00000 0 -15311970.559 -13800432.466 -14990806.368 10 0 60611 14400.00000 0 -16252453.178 -15217145.774 -12412946.059 10 0 60611 15300.00000 0 -17109369.623 -16284621.512 -9593471.336 10 0 60611 16200.00000 0 -17823830.823 -17001610.738 -6587324.899 10 0 60611 17100.00000 0 -18339818.447 -17379762.549 -3453048.314 10 0 60611 18000.00000 0 -18606678.629 -17442898.167 -251632.186 10 0 60611 18900.00000 0 -18581402.821 -17225785.010 2954678.660 10 0 60611 19800.00000 0 -18230599.204 -16772464.704 6103600.777 10 0 60611 20700.00000 0 -17532071.518 -16134207.604 9134024.089 10 0 60611 21600.00000 0 -16475939.101 -15367181.844 11987196.315 10 0 60611 22500.00000 0 -15065251.477 -14529936.437 14607856.814 10 0 60611 23400.00000 0 -13316072.253 -13680805.191 16945298.252 10 0 60611 24300.00000 0 -11257029.331 -12875340.893 18954336.326 10 0 60611 25200.00000 0 -8928350.493 -12163887.221 20596169.991 10 0 60611 26100.00000 0 -6380424.676 -11589389.535 21839116.916 10 0 60611 27000.00000 0 -3671948.377 -11185535.275 22659211.560 10 0 60611 27900.00000 0 -867733.418 -10975300.586 23040655.819 10 0 60611 28800.00000 0 1963734.241 -10969962.873 22976114.829 10 0 60611 29700.00000 0 4752885.080 -11168619.617 22466853.248 10 0 60611 30600.00000 0 7431700.621 -11558233.034 21522709.903 10 0 60611 31500.00000 0 9936284.897 -12114198.576 20161911.359 10 0 60611 32400.00000 0 12209268.246 -12801413.853 18410727.561 10 0 60611 33300.00000 0 14201945.540 -13575804.021 16302975.287 10 0 60611 34200.00000 0 15876061.470 -14386240.781 13879377.801 10 0 60611 35100.00000 0 17205169.707 -15176775.741 11186791.604 10 0 60611 36000.00000 0 18175509.883 -15889095.522 8277313.718 10 0 60611 36900.00000 0 18786365.911 -16465096.328 5207285.399 10 0 60611 37800.00000 0 19049890.480 -16849470.168 2036210.361 10 0 60611 38700.00000 0 18990402.612 -16992193.820 -1174392.412 10 0 60611 39600.00000 0 18643187.214 -16850815.041 -4362179.445 10 0 60611 40500.00000 0 18052846.584 -16392438.508 -7465194.137 10 0 60611 41400.00000 0 17271272.886 -15595326.099 -10423074.910 10 0 60611 42300.00000 0 16355326.914 -14450042.010 -13178236.019 10 0 60611 43200.00000 0 15364321.165 -12960092.216 -15676997.280 10 0 60611 44100.00000 0 14357413.873 -11142028.985 -17870639.797 10 0 60611 45000.00000 0 13391024.639 -9025013.803 -19716366.145 10 0 60611 45900.00000 0 12516381.598 -6649855.031 -21178145.397 10 0 60611 46800.00000 0 11777304.554 -4067558.893 -22227425.735 10 0 60611 47700.00000 0 11208318.580 -1337453.202 -22843700.011 10 0 60611 48600.00000 0 10833178.485 1475038.670 -23014912.710 10 0 60611 49500.00000 0 10663867.033 4300881.093 -22737699.963 10 0 60611 50400.00000 0 10700109.614 7070063.300 -22017457.613 10 0 60611 51300.00000 0 10929425.934 9714280.275 -20868235.879 10 0 60611 52200.00000 0 11327716.380 12169545.468 -19312462.602 10 0 60611 53100.00000 0 11860357.838 14378626.178 -17380500.618 10 0 60611 54000.00000 0 12483761.909 16293199.978 -15110048.156 10 0 60611 54900.00000 0 13147328.739 17875642.410 -12545394.400 10 0 60611 55800.00000 0 13795712.711 19100371.808 -9736545.415 10 0 60611 56700.00000 0 14371303.005 19954696.035 -6738238.285 10 0 60611 57600.00000 0 14816812.935 20439127.111 -3608863.655 10 0 60611 58500.00000 0 15077867.467 20567152.364 -409318.766 10 0 60611 59400.00000 0 15105478.687 20364473.849 2798185.663 10 0 60611 60300.00000 0 14858304.012 19867750.226 5951340.535 10 0 60611 61200.00000 0 14304591.519 19122896.205 8988951.038 10 0 60611 62100.00000 0 13423730.377 18183013.074 11852122.934 10 0 60611 63000.00000 0 12207341.326 17106038.896 14485399.394 10 0 60611 63900.00000 0 10659861.747 15952218.271 16837826.667 10 0 60611 64800.00000 0 8798601.194 14781498.413 18863928.764 10 0 60611 65700.00000 0 6653265.304 13650960.725 20524573.439 10 0 60611 66600.00000 0 4264968.021 12612394.911 21787714.111 10 0 60611 67500.00000 0 1684772.972 11710116.139 22628994.943 10 0 60611 68400.00000 0 -1028176.083 10979115.224 23032208.912 10 0 60611 69300.00000 0 -3808859.226 10443617.748 22989601.336 10 0 60611 70200.00000 0 -6588828.916 10116110.970 22502014.031 10 0 60611 71100.00000 0 -9298803.457 9996878.101 21578867.882 10 0 60611 72000.00000 0 -11871299.909 10074058.733 20237984.240 10 0 60611 72900.00000 0 -14243199.329 10324232.654 18505248.202 10 0 60611 73800.00000 0 -16358139.834 10713502.862 16414119.367 10 0 60611 74700.00000 0 -18168639.607 11199033.030 14004998.347 10 0 60611 75600.00000 0 -19637862.749 11730975.825 11324459.792 10 0 60611 76500.00000 0 -20740955.080 12254712.089 8424365.254 10 0 60611 77400.00000 0 -21465894.332 12713307.604 5360871.636 10 0 60611 78300.00000 0 -21813818.967 13050084.629 2193353.206 10 0 60611 79200.00000 0 -21798821.314 13211200.023 -1016742.838 10 0 60611 80100.00000 0 -21447212.971 13148120.879 -4207085.524 10 0 60611 81000.00000 0 -20796292.579 12819892.325 -7315671.029 10 0 60611 81900.00000 0 -19892667.122 12195100.347 -10282031.570 10 0 60611 82800.00000 0 -18790196.995 11253444.932 -13048418.149 10 0 60611 83700.00000 0 -17547651.215 9986855.007 -15560933.376 10 0 60611 84600.00000 0 -16226171.690 8400095.773 -17770591.376 10 0 60611 85500.00000 0 -14886653.831 6510840.505 -19634283.176 10 0 60612 0.00000 0 -13587154.590 4349201.714 -21115627.727 10 0 60612 900.00000 0 -12380437.196 1956738.131 -22185691.895 10 0 60612 1800.00000 0 -11311758.489 -615019.585 -22823562.759 10 0 60612 2700.00000 0 -10416990.435 -3306467.763 -23016763.149 10 0 60612 3600.00000 0 -9721157.171 -6052171.937 -22761499.844 10 0 60612 4500.00000 0 -9237448.802 -8783360.172 -22062740.110 10 0 60612 5400.00000 0 -8966753.540 -11430563.386 -20934114.827 10 0 60612 6300.00000 0 -8897727.601 -13926292.366 -19397650.013 10 0 60612 7200.00000 0 -9007399.199 -16207639.507 -17483332.119 10 0 60612 8100.00000 0 -9262280.196 -18218696.466 -15228515.850 10 0 60612 9000.00000 0 -9619937.241 -19912686.735 -12677186.497 10 0 60612 9900.00000 0 -10030954.618 -21253724.165 -9879091.806 10 0 60612 10800.00000 0 -10441204.305 -22218124.476 -6888761.175 10 0 60612 11700.00000 0 -10794325.766 -22795215.849 -3764432.175 10 0 60612 12600.00000 0 -11034309.171 -22987615.975 -566906.470 10 0 60612 13500.00000 0 -11108071.600 -22810965.759 2641641.604 10 0 60612 14400.00000 0 -10967916.395 -22293132.791 5798879.621 10 0 60612 15300.00000 0 -10573771.151 -21472920.171 8843530.436 10 0 60612 16200.00000 0 -9895109.641 -20398336.867 11716560.301 10 0 60612 17100.00000 0 -8912476.678 -19124504.002 14362318.647 10 0 60612 18000.00000 0 -7618552.002 -17711286.196 16729607.706 10 0 60612 18900.00000 0 -6018708.812 -16220748.113 18772662.080 10 0 60612 19800.00000 0 -4131043.809 -14714542.884 20452020.422 10 0 60612 20700.00000 0 -1985877.572 -13251341.325 21735273.737 10 0 60612 21600.00000 0 375254.092 -11884408.468 22597677.437 10 0 60612 22500.00000 0 2901076.445 -10659427.273 23022616.797 10 0 60612 23400.00000 0 5532459.368 -9612658.825 23001918.198 10 0 60612 24300.00000 0 8204631.395 -8769514.144 22536001.164 10 0 60612 25200.00000 0 10849634.120 -8143595.711 21633868.855 10 0 60612 26100.00000 0 13398917.118 -7736247.551 20312937.313 10 0 60612 27000.00000 0 15785967.772 -7536631.882 18598706.363 10 0 60612 27900.00000 0 17948868.773 -7522328.810 16524277.671 10 0 60612 28800.00000 0 19832678.673 -7660434.108 14129728.082 10 0 60612 29700.00000 0 21391537.700 -7909109.529 11461348.891 10 0 60612 30600.00000 0 22590411.900 -8219521.300 8570764.263 10 0 60612 31500.00000 0 23406403.048 -8538086.027 5513944.417 10 0 60612 32400.00000 0 23829569.370 -8808930.080 2350131.456 10 0 60612 33300.00000 0 23863222.108 -8976459.120 -859302.245 10 0 60612 34200.00000 0 23523684.612 -8987929.220 -4052041.490 10 0 60612 35100.00000 0 22839523.098 -8795910.430 -7166038.602 10 0 60612 36000.00000 0 21850280.434 -8360537.578 -10140722.949 10 0 60612 36900.00000 0 20604765.436 -7651451.642 -12918185.516 10 0 60612 37800.00000 0 19158969.097 -6649347.694 -15444314.727 10 0 60612 38700.00000 0 17573695.230 -5347061.835 -17669860.496 10 0 60612 39600.00000 0 15912005.296 -3750148.896 -19551404.768 10 0 60612 40500.00000 0 14236585.302 -1876924.226 -21052218.748 10 0 60612 41400.00000 0 12607145.988 242034.427 -22142989.268 10 0 60612 42300.00000 0 11077966.306 2564905.909 -22802399.381 10 0 60612 43200.00000 0 9695683.990 5040124.382 -23017551.340 10 0 60612 44100.00000 0 8497426.541 7608296.123 -22784223.241 10 0 60612 45000.00000 0 7509361.428 10204454.921 -22106954.041 10 0 60612 45900.00000 0 6745726.340 12760562.103 -20998955.125 10 0 60612 46800.00000 0 6208379.872 15208146.725 -19481850.114 10 0 60612 47700.00000 0 5886890.760 17480975.394 -17585248.079 10 0 60612 48600.00000 0 5759160.769 19517639.832 -15346158.787 10 0 60612 49500.00000 0 5792553.555 21263953.759 -12808261.793 10 0 60612 50400.00000 0 5945480.206 22675058.702 -10021044.292 10 0 60612 51300.00000 0 6169372.715 23717150.771 -7038825.363 10 0 60612 52200.00000 0 6410960.170 24368756.615 -3919686.549 10 0 60612 53100.00000 0 6614749.684 24621505.996 -724330.708 10 0 60612 54000.00000 0 6725605.610 24480369.915 2485107.598 10 0 60612 54900.00000 0 6691316.737 23963355.939 5646276.089 10 0 60612 55800.00000 0 6465042.034 23100675.329 8697818.708 10 0 60612 56700.00000 0 6007531.150 21933418.795 11580565.490 10 0 60612 57600.00000 0 5289025.786 20511798.131 14238675.201 10 0 60612 58500.00000 0 4290761.975 18893028.823 16620708.870 10 0 60612 59400.00000 0 3006010.333 17138943.285 18680614.196 10 0 60612 60300.00000 0 1440610.935 15313434.908 20378602.894 10 0 60612 61200.00000 0 -387019.412 13479839.574 21681905.372 10 0 60612 62100.00000 0 -2446407.871 11698363.158 22565389.709 10 0 60612 63000.00000 0 -4696052.945 10023661.015 23012034.489 10 0 60612 63900.00000 0 -7084916.550 8502668.768 23013247.712 10 0 60612 64800.00000 0 -9554319.968 7172772.983 22569026.674 10 0 60612 65700.00000 0 -12040166.532 6060396.147 21687956.365 10 0 60612 66600.00000 0 -14475400.547 5180053.406 20387046.525 10 0 60612 67500.00000 0 -16792602.355 4533919.125 18691410.193 10 0 60612 68400.00000 0 -18926613.661 4111920.562 16633789.082 10 0 60612 69300.00000 0 -20817085.642 3892354.415 14253933.796 10 0 60612 70200.00000 0 -22410845.181 3843000.458 11597849.454 10 0 60612 71100.00000 0 -23663981.439 3922685.932 8716919.738 10 0 60612 72000.00000 0 -24543566.018 4083235.550 5666924.929 10 0 60612 72900.00000 0 -25028934.635 4271725.571 2506971.662 10 0 60612 73800.00000 0 -25112475.978 4432947.354 -701645.807 10 0 60612 74700.00000 0 -24799893.688 4511976.513 -3896631.262 10 0 60612 75600.00000 0 -24109929.279 4456738.807 -7015896.254 10 0 60612 76500.00000 0 -23073556.367 4220463.512 -9998770.224 10 0 60612 77400.00000 0 -21732678.955 3763919.263 -12787186.854 10 0 60612 78300.00000 0 -20138387.581 3057336.147 -15326822.856 10 0 60612 79200.00000 0 -18348846.003 2081930.797 -17568166.075 10 0 60612 80100.00000 0 -16426897.005 830967.856 -19467491.143 10 0 60612 81000.00000 0 -14437487.931 -689689.270 -20987722.730 10 0 60612 81900.00000 0 -12445024.321 -2461563.807 -22099168.733 10 0 60612 82800.00000 0 -10510763.209 -4454089.817 -22780108.382 10 0 60612 83700.00000 0 -8690355.903 -6625654.927 -23017223.213 10 0 60612 84600.00000 0 -7031643.733 -8925119.206 -22805862.060 10 0 60612 85500.00000 0 -5572799.449 -11293747.438 -22150134.588 99